Date,TemperatureHighF,TemperatureAvgF,TemperatureLowF,DewpointHighF,DewpointAvgF,DewpointLowF,HumidityHigh,HumidityAvg,HumidityLow,PressureMaxIn,PressureMinIn,WindSpeedMaxMPH,WindSpeedAvgMPH,GustSpeedMaxMPH,PrecipitationSumIn
2013-2-1,37.2,26.6,17.4,19.7,10.2,3.7,59,50,39,29.99,29.51,19,4,19,0.00
2013-2-2,35.7,24.0,12.5,19.0,8.6,3.6,71,53,37,30.12,29.90,14,3,14,0.00
2013-2-3,35.9,24.0,13.8,23.5,13.8,8.2,82,66,50,29.91,29.62,8,0,8,0.00
2013-2-4,32.5,23.8,17.7,17.2,10.1,4.0,74,57,41,29.81,29.61,15,1,15,0.00
2013-2-5,31.6,24.9,20.1,19.0,13.9,7.6,77,63,53,29.87,29.77,5,0,5,0.00
2013-2-6,47.8,26.9,19.2,34.7,15.6,3.0,84,64,41,30.20,29.76,8,0,8,0.00
2013-2-7,37.0,24.9,14.5,12.5,7.7,3.3,63,48,36,30.38,30.19,8,0,8,0.00
2013-2-8,31.1,26.5,19.9,26.0,18.7,9.8,87,73,51,30.28,29.51,22,3,22,0.00
2013-2-9,30.7,22.5,12.7,22.8,13.8,0.8,88,71,48,30.14,29.55,19,4,19,0.00
2013-2-10,46.0,19.6,-2.3,26.0,6.6,-9.4,76,59,35,30.31,30.13,4,0,4,0.00
2013-2-11,37.9,28.7,12.0,34.3,23.1,5.2,87,80,74,30.19,29.50,7,0,7,0.00
2013-2-12,50.1,38.7,32.3,36.2,28.0,22.2,87,67,46,29.79,29.53,15,1,15,0.00
2013-2-13,50.9,37.8,31.4,28.5,23.1,19.4,71,56,42,29.76,29.57,10,0,10,0.00
2013-2-14,57.3,35.3,22.1,39.0,22.7,16.5,85,63,39,29.84,29.58,6,0,6,0.00
2013-2-15,55.0,38.3,24.6,40.7,28.5,17.7,85,69,47,29.84,29.75,13,1,13,0.00
2013-2-16,45.6,34.8,28.7,30.2,23.4,14.5,85,65,41,29.83,29.58,13,1,13,0.00
2013-2-17,32.1,23.4,13.8,14.5,5.0,-1.0,55,45,36,29.70,29.41,19,4,19,0.00
2013-2-18,38.3,22.2,11.4,11.0,2.6,-2.0,57,44,29,30.04,29.70,18,2,18,0.00
2013-2-19,46.5,32.1,15.9,33.8,21.7,3.8,85,66,46,30.04,29.45,12,1,12,0.00
2013-2-20,47.3,31.4,23.1,32.0,16.7,7.9,85,56,37,29.73,29.45,17,2,17,0.00
2013-2-21,40.6,26.6,20.1,19.9,11.4,6.5,65,53,39,30.13,29.71,22,2,22,0.00
2013-2-22,48.0,31.7,17.7,27.7,18.5,9.7,76,59,42,30.26,30.13,14,0,14,0.00
2013-2-23,38.4,33.6,30.7,32.5,27.0,22.1,87,77,67,30.16,29.73,7,0,7,0.00
2013-2-24,42.0,35.4,31.8,36.2,30.7,26.0,88,83,74,29.78,29.58,14,2,14,0.00
2013-2-25,58.8,36.7,25.5,38.5,26.1,20.4,82,67,40,30.10,29.78,8,0,8,0.00
2013-2-26,51.4,36.1,26.4,37.0,26.4,21.3,83,69,53,30.18,29.95,7,0,7,0.00
2013-2-27,41.9,36.9,32.7,38.8,33.2,-2.7,89,87,70,29.95,29.44,8,2,8,0.00
2013-2-28,53.4,37.4,32.1,41.9,32.7,28.9,89,84,64,29.49,29.40,4,0,4,0.00